THOR ABLESTAR DEB, 715

Orbit data source: Space-Track

THOR ABLESTAR DEB, 715 is space debris in LEO originally from a launch on Thu, 05 Dec 1963 UTC launched from the Air Force Western Test Range (AFWTR). Debris objects in space refer to the collection of defunct objects orbiting the Earth. Examples of debris include non-operational satellites, rocket bodies, and fragments generated from explosions, collisions, or faulty payload assembly.

Loading next visibility...
Identifier
715, 1963-049E
Orbit
LEO
Country
Flag of USUS
Related business
Manufacturer
Unknown
Mission
Spacecraft
Bus & Motor
Unknown
Mass
Unknown
Launch date (UTC)
1963-12-05 (62 years ago)
Launch vehicle
Unknown
Launch site
Air Force Western Test Range (AFWTR)
Object type
Payload
Rocket body
Debris
Shape & HBR
Unknown shape, 0.1 m
Radar Cross Section
Small (<0.1 m²)

Expand to show TLE details & history
Last TLE update: 10 hours ago

TLE from 10 hours ago
0 THOR ABLESTAR DEB
1 00715U 63049E   25295.87867720  .00001355  00000-0  14002-2 0  9996
2 00715  89.9080  79.8253 0030854 156.0862 356.5762 13.75185847 70764
Epoch: 2025-10-22T21:05Z
TLE epoch observation values (Epoch: 2025-10-22T21:05:17.710Z)
Latitude
27.39617°
Longitude
-88.09188°
Altitude
961.78 km
Speed
7.385 km/s
True Right ascension
17h 19m 06s
True Declination
27° 15' 35"
Sunlit
Object was in daylight at epoch
Visualization orbit readout
Latitude
Unknown
Longitude
Unknown
Altitude
Unknown
Speed
Unknown
Apparent Right ascension
Unknown
Apparent Declination
Unknown
Sunlit
N/A
Visualization observer readout
Local Sidereal Time
02:00:15
Azimuth
Unknown
Elevation
Unknown
Doppler factor
Unknown
Orbital elements
Apogee altitude
1,000.722 km
Perigee altitude
955.328 km
Semi-major axis
7,356.162 km
Eccentricity
0.00309
Inclination
89.908°
RAAN
79.8253°
Arg. of periapsis
156.0862°
True anomaly
356.555°
Mean anomaly
356.5762°
Eccentric anomaly
356.56561°
Mean motion
3.44006 °/min
Orbital period
104.65 mins
BSTAR
0.0014002
Loading maneuver chart data...
Computing Atmospheric mass density...
Loading historical data...
Loading historical data...
Loading historical data...
Loading historical data...
Loading historical data...
Loading historical data...
Loading historical data...

Documentation

Showing up to 5 results
|